Starlink 11359

operational
NORAD ID: 61884 Int'l Des: 2024-204 Owner: SPXS Country: US Constellation: starlink
LEOCIRCULAR

Über Starlink 11359

Beschreibung wird geladen...

Live-Position

3D-Globus wird geladen...

Nächste Überflüge

Höhenverlauf

Altitude vs Time

uPlot chart will show altitude changes over time

Zweizeiliger Elementsatz

1 61884U 24204L 25304.17027026 .00005515 00000-0 50355-4 0 9996
2 61884 53.1588 274.6357 0001737 83.0133 277.1083 15.69710265 56572
Epoch: 31. Okt. 2025 • Age: 9 hours

Aktueller Status

Höhe 377.8 km
Geschwindigkeit 7.68 km/s
Subsatellitenpunkt -49.36°S, 78.87°W
Startdatum 9. Nov. 2024
Alter 0.9 years
Typ internet

Technische Details

Klassifizierung Payload
Masse 960.00 kg
Trockenmasse 910.00 kg
Gesamtmasse 960.00 kg
Länge 0.30 m
Durchmesser 4.10 m
Spannweite 29.00 m
Form Box + pan
Hersteller SPXS
Bus-Typ Starlink V2MD
Phasenstatus In Orbit
Besitzer/Staat SPXS/US

Große Konstellationen

Loading constellations...